Tracking 28091 objects as of 30-Sep-2023
HD Live streaming from Space Station
objects crossing your sky now

STARLINK-5953

Track STARLINK-5953 now!
10-day predictions
STARLINK-5953 is classified as:


NORAD ID: 56799
Int'l Code: 2023-078AJ
Perigee: 496.2 km
Apogee: 500.8 km
Inclination: 70.0 °
Period: 94.4 minutes
Semi major axis: 6869 km
RCS: Unknown
Launch date: May 31, 2023
Source: United States (US)
Launch site: AIR FORCE WESTERN TEST RANGE (AFWTR)
Your satellite tracking list
Your tracking list is empty




NASA's NSSDC Master Catalog

Two Line Element Set (TLE):
1 56799U 23078AJ  23273.25001157 -.00863539  00000-0 -37731-1 0  9992
2 56799  69.9996  72.7000 0003373 270.2759 164.6452 15.24799828  6021
Source of the keplerian elements: AFSPC